User: anonymous   Login
Location: Unspecified
(0.0000°N, 0.0000°E)
Time: 07:34:52
(UTC+00:00)
Language:

JAS-1B - Orbit

View from above orbital plane
View from above orbital plane
View from above satellite
View from above satellite

Ground track
Ground track

The orbit data is extracted from the following two-line orbital elements,

1 20480U 90013C   19082.93585493 -.00000013 +00000-0 +42406-4 0  9998
2 20480 099.0232 105.5008 0540424 010.9735 350.2621 12.83421121364382
Epoch (UTC): 23 March 2019 22:27:37
Eccentricity: 0.0540424
inclination: 99.0232°
perigee height: 911 km
apogee height: 1744 km
right ascension of ascending node: 105.5008°
argument of perigee: 10.9735°
revolutions per day: 12.83421121
mean anomaly at epoch: 350.2621°
orbit number at epoch: 36438

The dashed part of the orbit path shows where the satellite is in the earth's shadow,  

DLR